MST,Max TemperatureF,Mean TemperatureF,Min TemperatureF,Max Dew PointF,MeanDew PointF,Min DewpointF,Max Humidity, Mean Humidity, Min Humidity, Max Sea Level PressureIn, Mean Sea Level PressureIn, Min Sea Level PressureIn, Max VisibilityMiles, Mean VisibilityMiles, Min VisibilityMiles, Max Wind SpeedMPH, Mean Wind SpeedMPH, Max Gust SpeedMPH,PrecipitationIn, CloudCover, Events, WindDirDegrees
2012-10-1,100,82,64,48,36,30,56,20,9,29.95,29.88,29.82,15,15,15,12,7,,0.00,0,,343
2012-10-2,102,83,64,46,39,32,45,22,9,29.92,29.86,29.78,15,15,15,12,4,,0.00,0,,214
2012-10-3,100,83,66,48,39,34,46,22,10,29.96,29.91,29.87,15,15,15,8,5,,0.00,2,,222
2012-10-4,96,80,64,48,42,36,56,25,12,30.05,29.98,29.92,20,16,15,9,5,,0.00,5,,179
2012-10-5,93,78,62,48,41,36,59,27,13,30.03,29.95,29.88,15,15,15,7,5,,0.00,3,,51
2012-10-6,89,74,60,45,42,39,55,28,17,29.93,29.87,29.80,15,15,15,7,3,,0.00,6,,231
2012-10-7,91,78,64,46,43,37,52,27,15,29.92,29.86,29.81,15,15,15,7,4,,0.00,3,,292
2012-10-8,93,78,62,46,44,39,55,28,15,29.95,29.89,29.83,15,15,15,12,5,,0.00,1,,222
2012-10-9,91,78,64,52,48,45,52,32,20,29.97,29.90,29.84,15,15,15,9,6,,0.00,1,,251
2012-10-10,91,78,64,55,45,36,64,32,14,29.98,29.88,29.80,15,15,15,14,8,18,0.00,0,,130
2012-10-11,87,78,68,59,50,36,68,38,18,29.89,29.84,29.78,20,17,15,23,12,30,0.00,6,Thunderstorm,148
2012-10-12,75,68,60,45,40,36,52,34,25,30.08,30.04,29.98,15,15,15,14,9,17,0.00,2,,223
2012-10-13,91,71,51,45,41,37,76,40,16,30.18,30.10,30.01,15,15,15,12,2,,0.00,0,,327
2012-10-14,89,71,53,57,41,36,63,31,15,30.09,30.00,29.92,15,15,15,9,6,,0.00,0,,267
2012-10-15,93,76,59,45,35,28,59,23,11,29.97,29.90,29.83,15,15,15,9,5,,0.00,0,,271
2012-10-16,91,74,57,45,37,34,44,25,13,29.90,29.81,29.75,15,15,15,8,5,,0.00,2,,207
2012-10-17,89,72,55,48,39,34,59,28,14,29.90,29.85,29.82,15,15,15,9,5,,0.00,2,,302
2012-10-18,87,72,57,55,48,39,63,37,22,30.06,29.98,29.92,15,15,15,9,5,,0.00,3,,326
2012-10-19,91,74,57,50,43,34,72,32,13,29.97,29.87,29.79,15,14,10,10,4,,0.00,1,,302
2012-10-20,89,73,57,45,38,32,59,27,13,29.87,29.80,29.74,15,15,15,12,5,,0.00,2,,267
2012-10-21,87,74,60,50,45,41,59,33,19,29.86,29.82,29.77,15,15,15,17,10,25,0.00,2,,168
2012-10-22,84,72,59,55,51,48,72,45,29,29.94,29.89,29.84,15,15,15,12,5,,0.00,1,,176
2012-10-23,82,70,57,55,50,46,72,45,28,29.92,29.86,29.80,15,15,15,7,5,,0.00,5,,243
2012-10-24,82,71,60,46,36,23,59,29,12,29.92,29.89,29.86,15,15,15,14,4,,0.00,1,,252
2012-10-25,82,66,50,36,24,18,58,19,9,30.04,29.95,29.90,15,15,15,9,5,,0.00,0,,252
2012-10-26,82,71,60,46,27,18,43,20,9,30.07,29.98,29.90,15,15,15,20,13,25,0.00,0,,341
2012-10-27,89,70,51,32,28,27,47,20,11,29.99,29.92,29.85,15,15,15,8,6,,0.00,0,,24
2012-10-28,87,68,48,41,33,27,62,28,12,30.01,29.96,29.91,15,15,15,6,4,,0.00,0,,13
2012-10-29,87,69,51,43,34,28,54,28,12,30.11,30.04,29.99,15,15,15,9,2,,0.00,0,,357
2012-10-30,86,68,51,43,35,27,54,29,12,30.07,30.00,29.93,20,16,15,7,3,,0.00,0,,276
2012-10-31,84,66,48,39,33,25,58,28,11,30.03,29.97,29.91,15,15,15,7,2,,0.00,4,,279